Regional Weather Roundup
Issued by NWS

Home | Current Version | Previous Version | Text Only | Print | Product List | Glossary Off
Versions: 1 2 3 4 5 6 7 8 9 10 11 12 13 14 15 16 17 18 19 20 21 22 23 24 25 26 27 28 29 30 31 32 33 34 35 36 37 38 39 40 41 42 43 44 45 46 47 48 49 50

530
ASUS45 KBOU 232210
RWRCO

WEATHER ROUNDUP FOR COLORADO
NATIONAL WEATHER SERVICE PUEBLO CO
400 PM MDT MON APR 23 2018

NOTE: "FAIR" INDICATES FEW OR NO CLOUDS BELOW 12000 FEET WITH NO
SIGNIFICANT WEATHER AND/OR OBSTRUCTIONS TO VISIBILITY.

COZ001>005-013-030-031-232300-
...NORTHWEST COLORADO...

CITY           SKY/WX    TMP DP  RH WIND       PRES   REMARKS
CRAIG          MOSUNNY   67  34  29 W16G25    30.03F
HAYDEN         MOSUNNY   65  33  30 W13G28    30.06S
MEEKER         MOSUNNY   69  26  20 W17G29    30.04S
RABBIT EARS PA NOT AVBL
STEAMBOAT SPGS FAIR      65  29  25 W13G30    30.05F
WALDEN         FAIR      59  19  21 W25G33    30.13S
$$

COZ006>008-011-232300-
...WEST CENTRAL VALLEYS...

CITY           SKY/WX    TMP DP  RH WIND       PRES   REMARKS
GRAND JUNCTION MOSUNNY   79  22  12 W14G28    29.97F
MONTROSE       MOSUNNY   75  17  11 N12       30.02F
EAGLE          PTSUNNY   70  23  17 SW17G29   30.06F
RIFLE          MOSUNNY   75  22  13 SW23G36   29.99F
DELTA          NOT AVBL
NUCLA          FAIR      77  16  10 NW6G23    30.08F
$$

COZ017>023-064>068-232300-
...SOUTHWEST COLORADO...

CITY           SKY/WX    TMP DP  RH WIND       PRES   REMARKS
DURANGO        MOSUNNY   72  16  12 SW10G24   30.09F
CORTEZ         SUNNY     75   4   6 NW14G22   30.09F
PAGOSA SPRINGS PTSUNNY   67  10  10 SW10G22   30.15F
TELLURIDE      PTSUNNY   59  17  19 W7        30.25F
WOLF CREEK PAS MOSUNNY   41  19  42 SW8G22    30.44F
$$

COZ009-010-012-014-032>034-037-058>063-232300-
...CENTRAL COLORADO...

CITY           SKY/WX    TMP DP  RH WIND       PRES   REMARKS
ASPEN          PTSUNNY   65  26  23 SW15G26   30.13F
BUENA VISTA    FAIR      66  15  14 W7G24     30.12F
COPPER MTN     NOT AVBL
BERTHOUD PASS  PTSUNNY   36  28  75 NW31      30.33F
COTTONWOOD PAS MOSUNNY   61  21  21 N6G21     30.23F
GUNNISON       MOSUNNY   66  19  16 W18G25    30.13F
KREMMLING      PTSUNNY   68  23  18 W16G25    30.11S
LEADVILLE      PTSUNNY   53  24  32 W14G22    30.24F
MONARCH PASS   PTSUNNY   43  16  33 W36G45    30.44F
SALIDA         PTSUNNY   69  14  12 W9G30     30.17F
SUNLIGHT       MOSUNNY   45  19  36 SW15G31   30.29F
WILKERSON PASS MOSUNNY   50  19  29 W5        30.33S
$$

COZ069>075-232300-
...SAN LUIS VALLEY/SANGRE DE CRISTO MOUNTAINS...

CITY           SKY/WX    TMP DP  RH WIND       PRES   REMARKS
ALAMOSA        MOSUNNY   68  20  16 NW9       30.12F
DEL NORTE      FAIR      64  20  18 SW14      30.15F
LA VETA PASS   MOSUNNY   55  21  26 S12       30.38F
SAGUACHE       NOT AVBL
$$

COZ035-036-038>040-232300-
...NORTHERN COLORADO FRONT RANGE...

CITY           SKY/WX    TMP DP  RH WIND       PRES   REMARKS
DENVER INTL AP PTSUNNY   69  35  28 N6        29.99F
DMNS CITY PARK NOT AVBL
AURORA         NOT AVBL
FRONT RANGE AP PTSUNNY   73  32  21 NW8G20    30.01F
ERIE MUNI ARPT FAIR      71  31  23 CALM      30.04S
BOULDER MUN AP FAIR      70  34  26 E3        29.97F
CENTENNIAL     PTSUNNY   71  35  26 N16G22    30.00F
BROOMFIELD     PTSUNNY   68  34  28 E9        30.00F
LOVELAND       PTSUNNY   67  41  38 SW8       30.00R
LONGMONT       FAIR      77  33  20 SW6G18    29.98F
$$

COZ041-046-047-076>085-087-088-232300-
...PIKES PEAK/PALMER DIVIDE AND SOUTHERN FOOTHILLS...

CITY           SKY/WX    TMP DP  RH WIND       PRES   REMARKS
COLO. SPRINGS  LGT RAIN  61  39  44 E14       30.07F
A. F. ACADEMY  NOT AVBL
SCHRIEVER AFB  NOT AVBL
CHEYENNE MTN   NOT AVBL
ELLICOTT         N/A    N/A N/A N/A SE9G21    30.05F
FALCON         FAIR      63  32  30 S13       30.12S
FORT CARSON    LGT RAIN  64  37  36 E9        30.04F
LIMON          SUNNY     68  37  32 SE18G25   30.03F
MONUMENT HILL  MOSUNNY   61  34  36 SE12      30.09F
CANON CITY     FAIR      77  32  19 E12       29.99F
WALSENBURG     FAIR      73  23  15 S9        30.03F
TRINIDAD       MOSUNNY   74  31  20 E8G18     30.03F
$$

COZ042>045-048>051-090-091-232300-
...NORTHEAST COLORADO...

CITY           SKY/WX    TMP DP  RH WIND       PRES   REMARKS
GREELEY ARPT   MOSUNNY   74  40  29 S8        29.97F
AKRON          SUNNY     66  43  43 SE21G32   30.01F
BURLINGTON     PTSUNNY   66  42  41 S18G26    30.05F
WRAY           FAIR      70  37  30 S14G20    30.03F
YUMA           NOT AVBL
STERLING       NOT AVBL
HOLYOKE        FAIR      68  37  32 S18       30.04R
FORT MORGAN    FAIR      71  35  26 SE14      29.98F
$$

COZ086-089-092>099-232300-
...SOUTHEAST COLORADO...

CITY           SKY/WX    TMP DP  RH WIND       PRES   REMARKS
PUEBLO         PTSUNNY   73  36  25 SE13G23   29.98F
LA JUNTA       PTSUNNY   74  37  26 E5        29.98F
LAMAR          PTSUNNY   75  40  28 SE18G25   29.97F
SPRINGFIELD      N/A     71  42  35 S17G31    30.02F
$$





USA.gov is the U.S. government's official web portal to all federal, state and local government web resources and services.